[[{"header":{"parameterUnit":"m.s-1","parameterCategory":1,"la1":30.2991,"la2":30.254,"lo1":-89.0895,"lo2":-89.0444,"dy":0.0017,"dx":0.0017,"nx":28,"ny":28,"refTime":"2025-03-14T21:00:00:Z","depth":0,"parameterNumber":2,"parameterNumberName":"U-component_of_WINDS"},"data":[0,0,0,0,0,0,0,0,0,0,0,0,0,0,0,0,0,0,0,0,0,0,0,0,0,0,0,0,0,0,0,0,0,0,0,0,0,0,0,0,0,0,0,0,0,0,0,0,0,0,0,0,0,0,0,0,0,0,-3.5277,-3.5278,0,-3.5368,-3.5369,-3.537,-3.5392,-3.5392,-3.5391,-3.539,-3.5484,-3.5487,-3.549,0,0,0,0,0,0,0,0,0,0,0,0,0,-3.5121,-3.5124,-3.5277,-3.5278,-3.5279,-3.5368,-3.5369,-3.5371,-3.5392,-3.5392,-3.5391,-3.539,-3.5483,-3.5486,-3.549,0,0,0,0,0,0,0,0,0,0,0,0,0,-3.5198,-3.5125,-3.5276,-3.5301,-3.5304,-3.5368,-3.5369,-3.5371,-3.5393,-3.5392,-3.5391,-3.539,-3.5481,-3.5486,-3.549,-3.5537,0,0,-3.5504,-3.5506,0,0,0,0,0,0,0,0,-3.5194,-3.5204,-3.5296,-3.5299,-3.5303,-3.5368,-3.5349,-3.5427,-3.5393,-3.5359,-3.539,-3.5389,-3.5446,-3.5453,-3.5472,-3.5541,-3.5545,-3.5505,-3.5508,-3.5509,-3.5511,0,0,0,0,0,0,0,-3.5189,-3.52,-3.5313,-3.5297,-3.5301,-3.5307,-3.5317,-3.5364,-3.5406,-3.5362,-3.5363,-3.5374,-3.5447,-3.5468,-3.5475,-3.5547,-3.5505,-3.5509,-3.5511,-3.5513,-3.5659,-3.566,0,0,0,0,0,0,-3.5179,-3.5196,-3.531,-3.5316,-3.5245,-3.5311,-3.5322,-3.5348,-3.5406,-3.5414,-3.5375,-3.5375,-3.5461,-3.5469,-3.5478,-3.5536,-3.5509,-3.5514,-3.5516,-3.5658,-3.5659,-3.566,0,0,0,0,0,0,-3.5176,-3.5189,-3.5306,-3.5256,-3.5272,-3.5314,-3.5343,-3.535,-3.5371,-3.5416,-3.5423,-3.5388,-3.546,-3.5472,-3.5522,-3.554,-3.5516,-3.552,-3.5656,-3.5658,-3.5659,-3.5653,0,0,0,0,0,0,-3.5171,-3.5188,-3.5206,-3.5256,-3.5274,-3.5349,-3.5345,-3.5353,-3.5378,-3.5379,-3.543,-3.5437,-3.546,-3.5515,-3.5527,-3.5546,-3.5524,-3.5655,-3.5657,-3.5659,-3.5651,-3.5654,-3.5656,0,0,0,0,0,-3.5165,-3.52,-3.5206,-3.522,-3.5297,-3.535,-3.536,-3.5386,-3.538,-3.5398,-3.5427,-3.5436,-3.5536,-3.552,-3.5533,-3.5554,-3.5654,-3.5656,-3.5659,-3.565,-3.5653,-3.5656,0,0,0,0,0,0,-3.5149,-3.5207,-3.5215,-3.5267,-3.5303,-3.5353,-3.5377,-3.5388,-3.5427,-3.5426,-3.5456,-3.5467,-3.5516,-3.554,-3.5521,-3.5602,-3.5595,-3.56,-3.5584,-3.5587,-3.5589,-3.5582,-3.5527,0,0,0,0,0,-3.5152,-3.519,-3.5238,-3.5279,-3.5297,-3.5334,-3.5358,-3.5375,-3.5413,-3.5429,-3.5462,-3.5499,-3.5539,-3.5565,-3.5604,-3.5656,-3.5667,-3.5676,-3.5679,-3.568,-3.5684,-3.5713,-3.5717,-3.5668,-3.5668,-3.5668,0,0,-3.5157,-3.5194,-3.5215,-3.5277,-3.5307,-3.5345,-3.5347,-3.5387,-3.5416,-3.5435,-3.5484,-3.551,-3.5554,-3.5605,-3.5629,-3.5627,-3.57,-3.5683,-3.5684,-3.5687,-3.5716,-3.572,-3.5725,-3.567,-3.567,-3.5669,0,0,-3.5187,-3.5218,-3.5256,-3.5286,-3.5332,-3.5357,-3.5366,-3.5415,-3.5433,-3.5483,-3.5498,-3.5533,-3.5602,-3.5632,-3.5657,-3.5699,-3.5708,-3.5712,-3.5722,-3.575,-3.5754,-3.5758,-3.5772,-3.5777,-3.5715,-3.5715,-3.5715,0,-3.5187,-3.5245,-3.5273,-3.5313,-3.534,-3.536,-3.5398,-3.5427,-3.5483,-3.5501,-3.5498,-3.5584,-3.5616,-3.5674,-3.5684,-3.5704,-3.5715,-3.5705,-3.5751,-3.5755,-3.5759,-3.5773,-3.5779,-3.5715,-3.5715,-3.5715,-3.5715,0,-3.5244,-3.5284,-3.5309,-3.5363,-3.5393,-3.5432,-3.5466,-3.5493,-3.5507,-3.5532,-3.5584,-3.5622,-3.5669,-3.5685,-3.57,-3.5746,-3.5743,-3.5745,-3.5738,-3.5763,-3.5777,-3.5783,-3.5715,-3.5715,-3.5715,-3.5715,0,0,-3.5264,-3.5334,-3.5342,-3.5367,-3.542,-3.5452,-3.5492,-3.5539,-3.5561,-3.56,-3.5634,-3.5692,-3.5695,-3.5723,-3.5742,-3.5766,-3.5797,-3.5766,-3.5767,-3.5769,-3.585,-3.5847,-3.5852,-3.5804,-3.5805,-3.5806,-3.5846,0,-3.5299,-3.5371,-3.5398,-3.5456,-3.5494,-3.5514,-3.555,-3.5586,-3.5611,-3.5646,-3.5674,-3.5715,-3.5716,-3.5732,-3.5758,-3.5788,-3.5813,-3.5786,-3.5836,-3.5837,-3.5822,-3.586,-3.5857,-3.5892,-3.5851,-3.5852,-3.5853,0,-3.5349,-3.5388,-3.5451,-3.5499,-3.5516,-3.5547,-3.5592,-3.5626,-3.5668,-3.5685,-3.5717,-3.5734,-3.5777,-3.5769,-3.5829,-3.5809,-3.5832,-3.585,-3.5852,-3.5856,-3.5845,-3.5864,-3.5904,-3.5909,-3.5862,-3.5861,-3.5861,0,-3.5356,-3.5425,-3.5471,-3.5492,-3.555,-3.5571,-3.5597,-3.5638,-3.5665,-3.5705,-3.5722,-3.5767,-3.5791,-3.5825,-3.5854,-3.5845,-3.5911,-3.5905,-3.5925,-3.5924,-3.5936,-3.5935,-3.5979,-3.5953,-3.5953,-3.5953,-3.5953,0,-3.5391,-3.5428,-3.5475,-3.5503,-3.5546,-3.5577,-3.5618,-3.5645,-3.5682,-3.5716,-3.5737,-3.5769,-3.5806,-3.5842,-3.5866,-3.5911,-3.5922,-3.5936,-3.5942,-3.5934,-3.5932,-3.5948,-3.5945,-3.5954,-3.5954,-3.5954,-3.5954,0,-3.5405,-3.5438,-3.549,-3.5541,-3.5555,-3.5584,-3.5628,-3.5657,-3.5683,-3.5726,-3.5738,-3.5779,-3.5824,-3.5857,-3.5914,-3.5929,-3.5978,-3.5984,-3.5963,-3.5966,-3.5984,-3.5981,-3.6038,-3.6047,-3.6016,-3.6017,-3.6017,0,-3.5425,-3.5454,-3.5509,-3.5533,-3.5558,-3.5597,-3.5625,-3.5657,-3.5685,-3.5735,-3.5758,-3.5804,-3.5842,-3.5911,-3.5946,-3.5991,-3.5997,-3.6014,-3.6004,-3.5995,-3.5996,-3.5994,-3.5997,-3.6015,-3.6015,-3.6016,-3.6016,0,-3.5456,-3.5471,-3.551,-3.5554,-3.5586,-3.5623,-3.566,-3.5679,-3.5718,-3.5748,-3.5794,-3.5823,-3.5882,-3.5927,-3.5975,-3.6001,-3.6015,-3.6019,-3.6026,-3.6017,-3.6003,-3.601,-3.5966,-3.6017,-3.6017,-3.6017,-3.6017,-3.6017,-3.5473,-3.55,-3.5543,-3.5585,-3.5616,-3.5651,-3.568,-3.5711,-3.5749,-3.5799,-3.5816,-3.5863,-3.5905,-3.5971,-3.5998,-3.6035,-3.6035,-3.6045,-3.6047,-3.6049,-3.6048,-3.5999,-3.6044,-3.6044,-3.6044,-3.6044,-3.6044,0,-3.5505,-3.5533,-3.5572,-3.5623,-3.5657,-3.5668,-3.571,-3.5737,-3.5778,-3.5816,-3.5853,-3.5906,-3.595,-3.5989,-3.6035,-3.6057,-3.6065,-3.6068,-3.6066,-3.6072,-3.6046,-3.6035,-3.6061,-3.6061,-3.6061,-3.6061,-3.6061,-3.6061,-3.5525,-3.5571,-3.5591,-3.5653,-3.5682,-3.5727,-3.575,-3.5782,-3.5813,-3.5871,-3.5907,-3.5933,-3.5972,-3.6021,-3.6062,-3.6072,-3.6088,-3.609,-3.6101,-3.6076,-3.6074,-3.6072,-3.6061,-3.6093,-3.6093,-3.6124,-3.6124,-3.6125]},{"header":{"parameterUnit":"m.s-1","parameterCategory":1,"la1":30.2991,"la2":30.254,"lo1":-89.0895,"lo2":-89.0444,"dy":0.0017,"dx":0.0017,"nx":28,"ny":28,"refTime":"2025-03-14T21:00:00:Z","depth":0,"parameterNumber":3,"parameterNumberName":"V-component_of_WINDS"},"data":[0,0,0,0,0,0,0,0,0,0,0,0,0,0,0,0,0,0,0,0,0,0,0,0,0,0,0,0,0,0,0,0,0,0,0,0,0,0,0,0,0,0,0,0,0,0,0,0,0,0,0,0,0,0,0,0,0,0,5.2276,5.2276,0,5.2256,5.2256,5.2256,5.2258,5.2259,5.2259,5.2259,5.2236,5.2235,5.2234,0,0,0,0,0,0,0,0,0,0,0,0,0,5.2316,5.2316,5.2276,5.2276,5.2276,5.2256,5.2256,5.2256,5.2258,5.2259,5.2259,5.2259,5.2236,5.2235,5.2234,0,0,0,0,0,0,0,0,0,0,0,0,0,5.2298,5.2315,5.2276,5.2275,5.2274,5.2256,5.2256,5.2256,5.2258,5.2259,5.2259,5.226,5.2237,5.2235,5.2234,5.2215,0,0,5.223,5.2229,0,0,0,0,0,0,0,0,5.2299,5.2296,5.2275,5.2275,5.2274,5.226,5.2262,5.2242,5.2258,5.2264,5.2259,5.226,5.2243,5.2242,5.2237,5.2214,5.2213,5.223,5.2229,5.2228,5.2228,0,0,0,0,0,0,0,5.23,5.2297,5.2268,5.2275,5.2274,5.2275,5.2273,5.2258,5.2251,5.2264,5.2264,5.2262,5.2243,5.2238,5.2236,5.2213,5.223,5.2228,5.2227,5.2227,5.2179,5.2178,0,0,0,0,0,0,5.2302,5.2298,5.2269,5.2267,5.2288,5.2274,5.2272,5.2264,5.2251,5.225,5.2261,5.2262,5.224,5.2238,5.2235,5.2215,5.2228,5.2227,5.2226,5.2179,5.2179,5.2178,0,0,0,0,0,0,5.2303,5.2299,5.2269,5.2283,5.2279,5.2273,5.2264,5.2264,5.2258,5.225,5.2248,5.2257,5.224,5.2237,5.2222,5.2214,5.2226,5.2225,5.218,5.2179,5.2178,5.2173,0,0,0,0,0,0,5.2304,5.23,5.2292,5.2283,5.2279,5.2256,5.2264,5.2263,5.2256,5.2257,5.2245,5.2244,5.2241,5.2224,5.222,5.2213,5.2224,5.218,5.2179,5.2179,5.2174,5.2173,5.2171,0,0,0,0,0,5.2306,5.229,5.2292,5.2288,5.2269,5.2255,5.2253,5.225,5.2255,5.2248,5.2244,5.2244,5.2216,5.2222,5.2218,5.221,5.2181,5.218,5.2179,5.2175,5.2173,5.2171,0,0,0,0,0,0,5.2296,5.2288,5.229,5.2271,5.2264,5.2256,5.2246,5.2248,5.2238,5.2239,5.2236,5.2233,5.2218,5.2212,5.2219,5.2194,5.2199,5.2197,5.2198,5.2196,5.2194,5.2196,5.2223,0,0,0,0,0,5.2292,5.2282,5.2276,5.226,5.2256,5.2252,5.2246,5.2245,5.2237,5.2234,5.2228,5.2219,5.2209,5.2202,5.2192,5.2174,5.2173,5.2167,5.2166,5.2165,5.2163,5.2156,5.2154,5.2175,5.2175,5.2175,0,0,5.2283,5.2278,5.2271,5.2258,5.2252,5.2242,5.2249,5.2237,5.223,5.2232,5.2217,5.2213,5.2204,5.2188,5.218,5.2183,5.2158,5.2163,5.2163,5.2161,5.2155,5.2153,5.2151,5.2174,5.2174,5.2174,0,0,5.2262,5.2256,5.2244,5.2239,5.2232,5.223,5.2227,5.222,5.2217,5.2203,5.2205,5.2197,5.2178,5.2173,5.2168,5.215,5.2151,5.2147,5.2139,5.2133,5.2132,5.213,5.2126,5.2124,5.2146,5.2146,5.2146,0,5.2251,5.2237,5.2237,5.2226,5.2222,5.2225,5.2214,5.2209,5.2198,5.2194,5.2198,5.2178,5.2172,5.2156,5.2153,5.2148,5.2145,5.2148,5.2132,5.2131,5.2129,5.2125,5.2123,5.2145,5.2145,5.2145,5.2145,0,5.2225,5.2216,5.2207,5.2199,5.2193,5.2182,5.2181,5.2175,5.2176,5.2175,5.2162,5.2156,5.2146,5.2142,5.2142,5.2128,5.213,5.2133,5.2138,5.2127,5.2123,5.2121,5.2145,5.2145,5.2145,5.2145,0,0,5.2194,5.219,5.2187,5.2185,5.218,5.2172,5.2163,5.2155,5.2151,5.2145,5.2137,5.2124,5.2128,5.2122,5.2122,5.2116,5.2106,5.212,5.212,5.2119,5.2093,5.2091,5.2089,5.2107,5.2107,5.2107,5.2094,0,5.2174,5.2157,5.216,5.2144,5.2137,5.2142,5.2134,5.213,5.213,5.2123,5.2122,5.2114,5.2118,5.2116,5.211,5.2108,5.2101,5.2109,5.2101,5.2101,5.2103,5.2087,5.2084,5.2072,5.2092,5.2092,5.2092,0,5.2146,5.2142,5.2127,5.2126,5.2123,5.2116,5.2111,5.2105,5.2102,5.2102,5.2098,5.21,5.2092,5.2098,5.2088,5.2094,5.2091,5.209,5.2089,5.2088,5.2095,5.2086,5.2068,5.2067,5.2089,5.2089,5.209,0,5.2128,5.2118,5.2109,5.2107,5.2105,5.21,5.2099,5.2097,5.2094,5.209,5.2088,5.2082,5.2079,5.2075,5.2076,5.2081,5.2066,5.2072,5.2067,5.2067,5.2063,5.2063,5.2045,5.206,5.206,5.206,5.206,0,5.2105,5.2096,5.2101,5.2095,5.2086,5.2089,5.208,5.2079,5.2078,5.2073,5.2077,5.2072,5.2073,5.2069,5.207,5.2062,5.206,5.2061,5.2061,5.206,5.2061,5.2058,5.2059,5.206,5.206,5.206,5.206,0,5.2082,5.2085,5.2075,5.2076,5.2076,5.207,5.207,5.2066,5.2067,5.2061,5.2059,5.2061,5.2056,5.2057,5.2051,5.2052,5.2043,5.2044,5.2044,5.2045,5.204,5.2041,5.202,5.2018,5.2034,5.2034,5.2034,0,5.2067,5.206,5.2062,5.206,5.2059,5.2055,5.2053,5.2057,5.2055,5.2053,5.2049,5.2045,5.2042,5.2035,5.2035,5.2032,5.2033,5.2026,5.2032,5.2033,5.2035,5.2035,5.2036,5.2025,5.2025,5.2024,5.2024,0,5.2041,5.2044,5.2041,5.204,5.2038,5.2036,5.2035,5.2033,5.2038,5.2035,5.2032,5.203,5.2026,5.2023,5.202,5.202,5.2023,5.2023,5.2022,5.2021,5.2022,5.2023,5.2042,5.2023,5.2023,5.2023,5.2023,5.2023,5.2022,5.2018,5.202,5.2018,5.2018,5.2018,5.2015,5.2017,5.2015,5.2013,5.2016,5.2012,5.2013,5.201,5.201,5.2008,5.201,5.2008,5.2007,5.2007,5.2007,5.2023,5.2007,5.2007,5.2007,5.2007,5.2007,0,5.1998,5.2001,5.1998,5.1999,5.1998,5.2003,5.2004,5.2002,5.1999,5.2,5.1999,5.1996,5.1994,5.1996,5.1995,5.1993,5.1995,5.1992,5.1993,5.1993,5.2004,5.2006,5.1991,5.1991,5.1991,5.1991,5.1991,5.1991,5.1985,5.198,5.1984,5.1979,5.1982,5.1979,5.198,5.198,5.1981,5.1979,5.1978,5.1981,5.1982,5.1982,5.1981,5.1982,5.1981,5.1979,5.198,5.199,5.1992,5.1993,5.1995,5.1979,5.1979,5.197,5.197,5.197]}]]